This is the latest recevied weather packets stored in our database for station/object KN4MGS. If no packets are shown the sender has not sent any weather packets the latest 10 day(s).
| Time | Temp. | Humidity | Pressure | Rain* | Wind** | Luminosity | Snow |
|---|---|---|---|---|---|---|---|
| 1777619615 | 14.44° C | 57% | 1017.8 hPa | 0 mm | - | 0 W/m² | - |
| 1777619310 | 14.44° C | 58% | 1017.9 hPa | 0 mm | - | 0 W/m² | - |
| 1777619005 | 14.44° C | 57% | 1017.7 hPa | 0 mm | - | 0 W/m² | - |
| 1777618700 | 14.44° C | 56% | 1017.8 hPa | 0 mm | - | 0 W/m² | - |
| 1777618400 | 15° C | 56% | 1017.7 hPa | 0 mm | - | 0 W/m² | - |
| 1777618097 | 15° C | 55% | 1017.9 hPa | 0 mm | - | 0 W/m² | - |
| 1777617794 | 15° C | 55% | 1017.8 hPa | 0 mm | - | 0 W/m² | - |
| 1777617494 | 15° C | 55% | 1017.6 hPa | 0 mm | - | 0 W/m² | - |
| 1777617191 | 15° C | 55% | 1017.6 hPa | 0 mm | - | 0 W/m² | - |
| 1777616887 | 15° C | 54% | 1017.5 hPa | 0 mm | - | 0 W/m² | - |
| 1777616583 | 15° C | 54% | 1017.6 hPa | 0 mm | - | 0 W/m² | - |
| 1777616277 | 15.56° C | 53% | 1017.9 hPa | 0 mm | - | 0 W/m² | - |
| 1777615975 | 15.56° C | 53% | 1017.9 hPa | 0 mm | - | 0 W/m² | - |
| 1777615671 | 15.56° C | 53% | 1017.7 hPa | 0 mm | - | 0 W/m² | - |
| 1777615369 | 15.56° C | 54% | 1017.8 hPa | 0 mm | - | 0 W/m² | - |
| 1777615068 | 15.56° C | 53% | 1017.9 hPa | 0 mm | - | 0 W/m² | - |
| 1777614764 | 15.56° C | 54% | 1017.7 hPa | 0 mm | - | 0 W/m² | - |
| 1777614458 | 15.56° C | 55% | 1017.7 hPa | 0 mm | - | 0 W/m² | - |
| 1777614155 | 15.56° C | 57% | 1017.6 hPa | 0 mm | - | 0 W/m² | - |
| 1777613850 | 15° C | 57% | 1017.8 hPa | 0 mm | - | 0 W/m² | - |
| 1777613548 | 13.89° C | 64% | 1017.5 hPa | 0 mm | - | 0 W/m² | - |
| 1777613244 | 12.78° C | 84% | 1017.6 hPa | 0 mm | - | 0 W/m² | - |
| 1777612941 | 12.78° C | 88% | 1017.6 hPa | 0 mm | - | 0 W/m² | - |
| 1777612636 | 12.78° C | 89% | 1017.6 hPa | 0 mm | - | 0 W/m² | - |
| 1777612333 | 12.78° C | 89% | 1017.5 hPa | 0 mm | - | 0 W/m² | - |
* Rain latest hour (hover to see other rain measurements)
** Current wind speed in m/s (hover to see current wind gust speed)